Вернуться в каталог

STARLINK-36335

АктивенСвязьSSO
NORAD 68015·PAYLOAD·🇺🇸 United States

Запущен Mar 1, 2026 с Vandenberg Space Force Base

Loading…

Ближайшие Пролёты (ближайшие 24 часа)

TLE

СвежийSource: CelesTrak SupGP

Эпоха: Sep 15, 2026, 03:33 UTC

1 68015C 26040A   26258.14840278  .00056620  00000+0  17579-2 0  2586
2 68015  97.2850 205.4832 0001772  96.3880 222.7071 15.33404880    16

Отслеживайте STARLINK-36335 в реальном времени с AllMySat

Download on the App Store